Regional Weather Roundup
Issued by NWS

Home | Current Version | Previous Version | Text Only | Print | Product List | Glossary On
Versions: 1 2 3 4 5 6 7 8 9 10 11 12 13 14 15 16 17 18 19 20 21 22 23 24 25 26 27 28 29 30 31 32 33 34 35 36 37 38 39 40 41 42 43 44 45 46 47 48 49 50
000
ASUS43 KMKX 272000
RWRWI

WISCONSIN REGIONAL WEATHER ROUNDUP
NATIONAL WEATHER SERVICE MILWAUKEE/SULLIVAN WI
300 PM CDT MON MAR 27 2017

NOTE: "FAIR" INDICATES FEW OR NO CLOUDS BELOW 12,000 FEET WITH NO
SIGNIFICANT WEATHER AND/OR OBSTRUCTIONS TO VISIBILITY.

WIZ001-002-006>008-014>016-023>028-272100-
NORTHWEST WISCONSIN

CITY           SKY/WX    TMP DP  RH WIND       PRES   REMARKS
SUPERIOR ARPT  CLOUDY    46  35  65 E3        29.98F
ASHLAND        CLOUDY    47  36  65 N8        29.98S
HAYWARD        CLOUDY    56  31  38 NE9       29.94S
SIREN          CLOUDY    54  33  44 NE5       29.95F
CUMBERLAND     CLOUDY    52  32  46 E7        29.95S
RICE LAKE      CLOUDY    51  36  56 CALM      29.97S
CHETEK         CLOUDY    47  38  68 E6        29.96F
LADYSMITH      CLOUDY    48  37  65 NE6       29.97S
EAU CLAIRE     NOT AVBL
MENOMONIE      CLOUDY    46  36  69 N3        29.98S
NEW RICHMOND   CLOUDY    54  35  49 CALM      29.96S
OSCEOLA        CLOUDY    56  35  46 NW6       29.98S
$$

WIZ003>005-009-010-017-018-272100-
NORTH CENTRAL WISCONSIN

CITY           SKY/WX    TMP DP  RH WIND       PRES   REMARKS
MANITOWISH WTR CLOUDY    44  35  72 CALM      29.94S
ARBOR VITAE    CLOUDY    43  33  68 NE3       29.93F
WOODRUFF       CLOUDY    43  33  68 NE3       29.93F
RHINELANDER    CLOUDY    44  36  73 NE6       29.94F
EAGLE RIVER    CLOUDY    44  32  63 CALM      29.94S
LAND O LAKES   CLOUDY    40  34  79 CALM      29.97R
PHILLIPS       CLOUDY    45  34  65 E5        29.94S
TOMAHAWK       CLOUDY    42  36  80 N3        29.95S
MEDFORD        CLOUDY    40  36  85 NE3       29.94S
MERRILL        CLOUDY    41  38  88 N3        29.95S
$$

WIZ029-030-035-036-043>047-272100-
CENTRAL WISCONSIN

CITY           SKY/WX    TMP DP  RH WIND       PRES   REMARKS
WAUSAU         CLOUDY    42  36  79 NW3       29.93F
MOSINEE        CLOUDY    41  37  87 CALM      29.95F
MARSHFIELD     CLOUDY    41  36  82 NW5       29.94S
STEVENS POINT  CLOUDY    39  38  96 CALM      29.95F
WAUPACA        CLOUDY    45  40  82 CALM      29.95F
WAUTOMA        CLOUDY    47  42  83 NW5       29.94F
WISC RAPIDS    CLOUDY    44  40  85 N6        29.95F
CAMP DOUGLAS   NOT AVBL
$$

WIZ011>013-019>022-031-037>040-048>050-272100-
NORTHEAST WISCONSIN

CITY           SKY/WX    TMP DP  RH WIND       PRES   REMARKS
ANTIGO         CLOUDY    40  37  89 CALM      29.94F
SHAWANO        CLOUDY    43  37  80 CALM      29.96S
OCONTO         CLOUDY    38  33  80 E3        29.97S
STURGEON BAY   CLOUDY    39  35  86 N6        29.94S WCI  35
GREEN BAY      CLOUDY    44  38  79 N6        29.95F
MANITOWOC      NOT AVBL
APPLETON       CLOUDY    43  41  93 NW6       29.93F
CLINTONVILLE   CLOUDY    41  37  87 N3        29.96S
OSHKOSH        CLOUDY    44  38  79 E6        29.94S
$$

WIZ032>034-041-042-053>061-272100-
SOUTHWEST WISCONSIN

CITY           SKY/WX    TMP DP  RH WIND       PRES   REMARKS
LA CROSSE      CLOUDY    50  42  74 NW9       29.94F
SPARTA         CLOUDY    46  42  83 N3        29.95F
VIROQUA        CLOUDY    45  42  89 CALM      29.93F
BOSCOBEL       CLOUDY    50  43  77 CALM      29.94F
PRAIRIE DU CHI CLOUDY    45  44  94 SW3       29.94F FOG
PLATTEVILLE    CLOUDY    47  45  93 N3        29.94S
$$

WIZ056-057-062-063-064-067-068-272100-
SOUTH CENTRAL WISCONSIN

CITY           SKY/WX    TMP DP  RH WIND       PRES   REMARKS
REEDSBURG      CLOUDY    46  44  93 CALM      29.93F
BARABOO/DELLS  CLOUDY    46  41  82 CALM      29.93F
LONE ROCK      NOT AVBL
MINERAL POINT  CLOUDY    46  45  93 CALM      29.93S
MADISON        CLOUDY    47  41  80 CALM      29.93F
MIDDLETON      CLOUDY    47  43  84 CALM      29.94F
WATERTOWN      CLOUDY    47  43  87 NW3       29.93S
MONROE         CLOUDY    46  43  87 CALM      29.92F
JANESVILLE     CLOUDY    50  45  81 CALM      29.92R
$$

WIZ051-052-058>065-066-070>072-272100-
SOUTHEAST WISCONSIN

CITY           SKY/WX    TMP DP  RH WIND       PRES   REMARKS
MILWAUKEE      CLOUDY    46  39  76 E3        29.94S
WAUKESHA       NOT AVBL
MILWAUKEE/TIMM CLOUDY    45  37  76 CALM      29.95S
RACINE         CLOUDY    44  38  79 E6        29.95F
KENOSHA        CLOUDY    44  40  85 E8        29.94R
FOND DU LAC    CLOUDY    48  40  73 CALM      29.93F
SHEBOYGAN      CLOUDY    43  39  86 E3        29.94S
WEST BEND      CLOUDY    45  41  87 CALM      29.94S
JUNEAU         CLOUDY    45  42  87 CALM      29.94F
$$

LSZ147-162-272100-
LAKE SUPERIOR

STATION/POSITION TIME  TEMP    WIND        PRES    WAVE
                       AIR SEA DIR/SP/G            HT/PER
                 (UTC) (F)     (DEG/KT/KT) (MB)    (FT/S)
DEVILS ISLAND    1900   34     240/  6/  7 1016.6S
PORT WING        1930   36     330/  4/  5 1015.6S
SAXON HARBOR     1940   36      40/  3/  4 1015.6S
$$

LMZ867-665-643>646-272100-
LAKE MICHIGAN

STATION/POSITION TIME  TEMP    WIND        PRES    WAVE
                       AIR SEA DIR/SP/G            HT/PER
                 (UTC) (F)     (DEG/KT/KT) (MB)    (FT/S)
CHAMBERS ISLAND  1940   36      30/  3/  4 1014.2F
NORTHPORT PIER   1940   37     310/  2/  3 1014.6S
SISTER BAY       1806   36     340/  8/  9   N/A
KEWAUNEE LAKESHO 1930   37      CALM  /  1 1014.0F
SHEBOYGAN LAKESH 1900   37      40/  3/  3 1014.8R
PORT WASHINGTON  1940   41     170/  2/  4 1015.2S
MILWAUKEE LAKESH 1930   39     120/  3/  3   N/A
KENOSHA   LAKESH 1900   40     150/  4/  5 1013.9
$$

TC  - TEMPERATURE IN CELSIUS
VSB - VISIBILITY IN STATUTE MILES
WCI - WIND CHILL INDEX
HX  - HEAT INDEX




USA.gov is the U.S. government's official web portal to all federal, state and local government web resources and services.